Location: The Saddle
(36.8333°N, 80.3417°W)
Time: 05:29:28
(UTC-05:00)

Transit 2A - Visible Passes

Search period start: 19 January 2022 00:00
Search period end: 29 January 2022 00:00
Orbit: 591 x 967 km, 66.7° (Epoch: 18 January)

Date Brightness Start Highest point End Pass type
(mag) Time Alt. Az. Time Alt. Az. Time Alt. Az.
22 Jan 8.7 20:06:50 10° N 20:06:59 10° N 20:06:59 10° N visible
23 Jan 8.4 19:33:15 10° N 19:34:01 12° NNE 19:34:01 12° NNE visible
24 Jan 8.3 19:00:14 10° NNE 19:01:07 11° NNE 19:01:07 11° NNE visible
24 Jan 8.6 20:40:43 10° NNW 20:41:37 14° NNW 20:41:37 14° NNW visible
25 Jan 8.0 20:06:38 10° NNW 20:08:49 21° N 20:08:49 21° N visible
26 Jan 7.5 19:32:38 10° N 19:36:08 26° NNE 19:36:08 26° NNE visible
26 Jan 8.8 21:15:47 10° NW 21:16:39 14° NW 21:16:39 14° NW visible
27 Jan 7.4 18:58:47 10° N 19:03:21 22° NE 19:03:34 22° NE visible
27 Jan 7.9 20:41:17 10° NW 20:44:07 28° NW 20:44:07 28° NW visible
28 Jan 7.8 18:25:09 10° N 18:28:45 16° NE 18:31:12 13° ENE visible
28 Jan 6.5 20:06:57 10° NNW 20:11:45 59° NNW 20:11:45 59° NNW visible
